sat.trackr.live / text

‹ back to catalog

STARLINK-32325

NORAD 61588 · 2024-187Q

PAYLOAD ACTIVE UNKNOWN

§ Identity

Operator
Country
US
Launch date
2024-10-18
Launch site
AFETR
Launch vehicle
Mass (kg)
RCS (m²)

Purposes: comms

External: N2YO · Heavens-Above · Gunter

§ Orbital elements

Epoch: 2026-09-21T07:24:09.883008Z

Period
93.85 min
Inclination
53.1590°
Eccentricity
0.0001521
Mean motion
15.34388777 rev/d
Perigee alt
461.7 km
Apogee alt
463.8 km
Semi-major
6,840.9 km
B*
2.1360e-5
RAAN
232.1617°
Arg perigee
85.4906°
Mean anomaly
274.6270°
Rev number
10,909

§ Raw data

STARLINK-323251 61588U 24187Q   26264.30844772  .00000345  00000+0  21360-4 0  99922 61588  53.1590 232.1617 0001521  85.4906 274.6270 15.34388777109096

JSON: /api/v1/satellites/61588 · /tle

For live sub-satellite position, see the globe view (requires WebGL).

§ Visibility from observer

Set your observer location to see the next 7 days of passes ≥ 10°. The values pass through the URL so the page stays shareable.

No JS? Fill the form by hand. The geolocation button needs JavaScript.